Weather History for Barking Sands, HI

Change the Weather History Date:

Wednesday, March 28, 2012

  Actual Average Record
Temperature  
Mean Temperature 72 °F -  
Max Temperature 80 °F 82 °F 88 °F (1959)
Min Temperature 63 °F 63 °F 58 °F (1957)
Cooling Degree Days 6    
Growing Degree Days 22 (Base 50)    
Moisture  
Dew Point 56 °F    
Average Humidity 61    
Maximum Humidity 79    
Minimum Humidity 47    
Precipitation  
Precipitation 0.00 in - - ()
Sea Level Pressure  
Sea Level Pressure 30.08 in    
Wind  
Wind Speed 6 mph (ENE)    
Max Wind Speed 10 mph    
Max Gust Speed -    
Visibility 10 miles    
Events      
Averages and records for this station are not official NWS values.
T = Trace of Precipitation, MM = Missing Value Source: NWS Daily Summary

Daily Weather History Graph

Daily Weather History Graph

Search for Another Location

Airport:

Trip Planner

Search our weather history database for the weather conditions in past years. The results will help you decide how hot, cold, wet, or windy it might be!

Date:

Astronomy

Mar. 28, 2012 Rise Set
Actual Time 6:35 AM HST 6:53 PM HST
Civil Twilight 6:12 AM HST 7:15 PM HST
Nautical Twilight 5:46 AM HST 7:41 PM HST
Astronomical Twilight 5:20 AM HST 8:08 PM HST
Moon 10:37 AM HST (3/28) No Moon Set
Length of Visible Light 13h 02m
Length of Day
12h 18m
Waxing Crescent, 32% of the Moon is Illuminated
Mar 28
Waxing Crescent
Mar 30
First Quarter
Apr 6
Full
Apr 13
Last Quarter
Apr 20
New

Hourly Weather History & Observations

Time (HST) Temp. Heat Index Dew Point Humidity Pressure Visibility Wind Dir Wind Speed Gust Speed Precip Events Conditions
12:56 AM 66.0 °F - 52.0 °F 60% 30.09 in 10.0 mi East 5.8 mph - N/A   Clear
1:56 AM 64.9 °F - 54.0 °F 68% 30.08 in 10.0 mi East 5.8 mph - N/A   Clear
2:56 AM 66.0 °F - 52.0 °F 60% 30.06 in 10.0 mi East 8.1 mph - N/A   Clear
3:56 AM 64.9 °F - 52.0 °F 63% 30.06 in 10.0 mi ENE 5.8 mph - N/A   Clear
4:56 AM 63.0 °F - 53.1 °F 70% 30.05 in 10.0 mi ENE 5.8 mph - N/A   Clear
5:56 AM 64.9 °F - 57.0 °F 75% 30.07 in 10.0 mi East 6.9 mph - N/A   Clear
6:56 AM 64.9 °F - 57.0 °F 75% 30.08 in 10.0 mi East 6.9 mph - N/A   Clear
7:56 AM 71.1 °F - 55.0 °F 57% 30.10 in 10.0 mi East 5.8 mph - N/A   Clear
8:56 AM 75.0 °F - 57.0 °F 53% 30.11 in 10.0 mi NNW 5.8 mph - N/A   Clear
9:56 AM 75.0 °F - 55.9 °F 51% 30.11 in 10.0 mi West 5.8 mph - N/A   Clear
10:56 AM 75.9 °F - 57.0 °F 52% 30.11 in 10.0 mi West 6.9 mph - N/A   Clear
11:56 AM 78.1 °F - 57.0 °F 48% 30.11 in 10.0 mi West 10.4 mph - N/A   Clear
1:56 PM 80.1 °F 80.6 °F 57.9 °F 47% 30.08 in 10.0 mi West 10.4 mph - N/A   Clear
2:56 PM 78.1 °F - 57.0 °F 48% 30.06 in 10.0 mi West 6.9 mph - N/A   Clear
3:56 PM 78.1 °F - 57.9 °F 50% 30.05 in 10.0 mi WNW 6.9 mph - N/A   Clear
4:56 PM 77.0 °F - 57.9 °F 52% 30.05 in 10.0 mi NW 8.1 mph - N/A   Clear
6:56 PM 75.0 °F - 57.0 °F 53% 30.06 in 10.0 mi SSW 3.5 mph - N/A   Unknown
7:56 PM 71.1 °F - 59.0 °F 66% 30.08 in 10.0 mi ESE 5.8 mph - N/A   Clear
8:56 PM 69.1 °F - 59.0 °F 70% 30.09 in 10.0 mi Calm Calm - N/A   Clear
9:56 PM 66.9 °F - 59.0 °F 76% 30.10 in 10.0 mi ENE 5.8 mph - N/A   Clear
10:56 PM 66.9 °F - 59.0 °F 76% 30.10 in 10.0 mi ENE 5.8 mph - N/A   Clear
11:56 PM 66.9 °F - 60.1 °F 79% 30.10 in 10.0 mi East 4.6 mph - N/A   Clear